SCP
-0 -0 -0 -0 -0 -0 -0 -0 -0 -0 -0 -0 -0 -0 -0 -0 -0 -0 -0 -0 -0 -0 -0 -0 0 0 0 0 -0 -0 -0 0 0 0 -0 -0 -0 -0 -0 0 0 -0 0 -0 0 0 -0
-0 -0 -0 -0 -0 -0 -0 -0 -0 -0 -0 -0 -0 -0 -0 -0 -0 -0 -0 -0 -0 -0 -0 -0 0 -0 -0 0 -0 -0 -0 0 0 0 -0 -0 -0 -0 -0 0 0 0 -0 0 -0 -0 0
-0 -0 -0 -0 -0 -0 -0 -0 -0 -0 -0 -0 -0 -0 -0 -0 -0 -0 -0 -0 -0 -0 -0 0 0 -0 -0 0 0 -0 -0 0 0 0 0 -0 -0 -0 -0 0 -0 0 0 -0 -0 0 0
0 0 0 -0 -0 -0 -0 -0 -0 -0 -0 -0 -0 -0 -0 -0 -0 -0 -0 -0 -0 -0 0 0 0 -0 -0 0 0 0 0 0 0 0 -0 0 0 -0 -0 0 -0 0 0 0 0 -0 0
0 0 0 0 0 0 -0 -0 -0 -0 -0 -0 -0 -0 -0 -0 -0 -0 -0 -0 -0 -0 0 0 -0 0 -0 0 0 0 0 -0 0 0 -0 0 0 -0 -0 -0 0 0 0 -0 -0 -0 -0
0 0 0 0 0 0 0 0 -0 -0 -0 -0 -0 -0 -0 -0 -0 -0 -0 -0 -0 0 0 0 0 -0 -0 0 0 0 0 0 -0 0 0 -0 -0 0 -0 -0 0 0 0 -0 0 -0 -0
0 0 0 0 0 0 -0 -0 -0 -0 -0 -0 -0 -0 -0 -0 -0 -0 0 -0 0 0 0 0 0 -0 0 0 0 0 0 0 -0 0 0 0 -0 0 0 0 0 0 -0 -0 0 -0 -0
0 0 0 0 0 -0 -0 -0 -0 -0 -0 -0 -0 -0 -0 -0 -0 0 -0 0 0 0 -0 -0 -0 -0 0 0 0 0 0 -0 0 -0 -0 -0 -0 -0 -0 0 -0 -0 -0 0 0 0 0
0 0 0 -0 0 0 0 0 0 0 0 0 0 0 -0 -0 -0 0 0 -0 0 0 0 0 -0 -0 -0 -0 0 -0 -0 0 -0 -0 -0 0 -0 -0 -0 0 0 -0 0 0 0 0 0
0 0 0 0 0 0 0 0 0 0 0 0 0 0 0 -0 0 0 -0 0 0 -0 0 0 -0 -0 -0 0 -0 -0 -0 0 -0 -0 0 -0 -0 0 0 0 0 0 0 -0 0 0 0
-0 -0 0 0 0 0 0 0 0 0 0 0 0 0 0 0 0 0 0 0 0 -0 0 0 0 0 -0 -0 0 0 -0 0 0 -0 0 0 0 -0 0 0 0 0 0 0 0 0 0
0 0 0 0 0 0 0 0 0 0 0 0 -0 0 0 0 0 0 0 -0 -0 0 0 0 0 0 0 0 0 0 0 0 -0 0 -0 0 -0 0 -0 0 -0 0 0 -0 -0 -0 0
0 0 0 0 0 0 0 0 0 0 0 -0 -0 -0 -0 0 0 0 0 -0 0 0 -0 0 0 -0 -0 -0 0 0 -0 -0 0 -0 0 -0 0 0 -0 0 -0 -0 0 0 0 0 -0
0 0 0 0 0 0 0 0 0 0 -0 -0 -0 -0 0 0 0 -0 0 0 0 -0 0 0 0 0 0 0 -0 -0 -0 -0 -0 0 0 -0 -0 -0 0 0 0 -0 0 0 0 0 0
0 0 0 0 0 0 -0 -0 -0 -0 -0 -0 -0 0 0 0 0 -0 0 0 0 0 -0 -0 0 0 -0 -0 0 -0 -0 -0 -0 -0 0 -0 0 0 0 -0 -0 -0 -0 -0 0 0 0
0 0 0 0 0 -0 -0 -0 -0 -0 -0 -0 0 -0 0 0 0 0 0 -0 0 -0 0 0 0 -0 -0 -0 -0 0 0 -0 -0 -0 -0 -0 0 0 0 -0 -0 -0 -0 0 0 -0 0
0 0 0 0 0 0 0 0 0 -0 -0 -0 0 0 0 0 0 0 0 0 -0 0 0 0 0 -0 -0 0 0 0 0 -0 0 0 0 -0 -0 0 0 0 0 0 0 0 0 0 0
-0 -0 -0 -0 -0 0 0 0 0 0 -0 0 0 0 0 0 0 0 0 0 -0 0 0 0 0 0 0 0 0 0 -0 0 0 0 0 0 0 0 -0 -0 -0 0 -0 0 0 -0 0
0 0 -0 -0 0 0 0 0 0 0 0 0 0 -0 0 0 0 0 0 0 -0 0 0 0 0 0 0 0 0 0 0 0 0 0 -0 0 0 0 0 0 0 -0 -0 0 0 -0 0
0 0 0 0 0 0 0 0 0 0 0 0 0 0 0 0 0 0 0 0 0 0 0 0 0 0 0 -0 0 0 0 0 0 0 0 0 -0 0 0 0 0 0 -0 0 0 0 0
0 0 0 0 0 0 0 0 0 0 0 0 0 0 0 0 0 0 0 0 0 0 0 0 0 0 -0 0 0 0 0 0 0 0 0 0 0 0 0 0 0 -0 0 -0 0 0 0
0 0 0 0 0 0 0 0 0 0 0 0 0 0 0 0 0 0 0 0 0 0 0 0 0 0 0 0 -0 -0 -0 0 0 0 0 0 0 0 0 0 0 0 -0 0 -0 0 0
0 0 0 0 0 0 0 0 0 0 0 0 0 0 0 0 0 0 0 0 0 0 0 0 0 0 0 0 0 0 0 0 0 0 0 0 0 0 0 0 0 0 0 -0 0 0 0
0 0 0 0 0 0 0 0 0 0 0 0 0 0 0 0 0 0 0 0 0 0 0 0 0 0 0 0 0 0 0 0 0 0 0 0 0 0 0 0 0 0 -0 -0 0 0 0
0 0 0 0 0 0 0 0 0 0 0 0 0 0 0 0 0 0 0 0 0 0 0 0 0 0 0 0 0 0 0 0 0 0 0 0 0 0 0 0 0 0 0 0 0 0 0
0 0 0 0 0 0 0 0 0 0 0 0 0 0 0 0 0 0 0 0 0 0 0 0 -0 0 0 0 0 0 0 0 0 0 0 0 0 0 0 0 0 0 0 0 0 0 0
0 0 0 0 0 0 0 0 0 0 0 0 0 0 0 0 0 0 0 0 0 0 0 0 0 0 0 0 0 0 0 0 0 0 0 0 0 0 0 0 0 0 0 0 0 0 0
0 0 0 0 0 0 0 0 0 0 0 0 0 0 0 0 0 0 0 0 0 0 0 0 0 0 0 0 0 0 0 0 0 0 0 0 0 0 0 0 0 0 0 0 0 0 0
0 0 0 0 0 0 0 0 0 0 0 0 0 0 0 0 0 0 -0 -0 -0 -0 0 0 0 0 0 0 0 0 0 0 0 0 0 0 0 1 0 0 0 0 0 0 -0 0 0
Wind_Speed_500mb
38 39 39 39 39 39 39 38 37 35 34 34 33 31 29 25 20 15 11 8 6 7 7 8 9 2 6 14 19 8 25 27 26 29 21 24 31 33 28 4 5 11 17 23 19 13 16
36 37 38 38 39 39 39 38 37 37 36 35 35 34 32 28 22 16 12 7 5 5 6 7 8 8 10 23 2 7 16 24 23 26 24 26 30 24 22 12 9 20 16 23 28 22 14
36 37 38 38 38 39 39 38 37 37 37 37 36 35 34 31 24 18 13 7 6 6 7 8 10 14 16 23 5 4 20 22 24 24 25 23 26 20 32 19 23 22 16 40 28 23 14
36 38 40 40 40 40 39 39 39 38 38 38 37 36 35 32 26 18 11 8 8 9 10 10 12 15 18 14 11 18 20 24 27 24 25 20 20 25 38 2 17 13 19 8 16 24 14
39 41 42 43 42 42 41 41 41 41 40 39 38 37 35 33 27 19 12 11 12 10 13 13 12 10 30 18 15 22 24 28 28 27 25 19 21 32 42 25 23 17 17 34 21 21 19
40 42 44 45 43 42 42 42 42 43 42 41 38 37 35 34 29 20 13 15 18 18 17 20 24 18 30 23 14 21 21 26 29 28 28 30 24 26 29 29 9 9 19 13 31 17 28
41 43 45 46 45 42 41 42 44 44 43 41 39 37 34 33 30 21 13 18 14 10 25 33 14 26 13 10 15 17 20 24 28 32 27 36 26 29 36 32 31 34 25 31 24 46 35
42 44 45 45 44 42 42 43 44 43 42 40 39 37 33 29 28 17 14 12 20 19 32 47 42 37 3 20 18 22 23 27 28 28 34 31 31 36 35 15 48 37 29 26 30 23 20
43 43 43 43 43 42 42 43 44 45 43 42 40 39 34 25 20 8 10 24 21 20 24 40 47 41 31 25 25 33 31 34 25 30 33 35 32 31 38 26 18 37 22 20 1 13 21
42 42 42 43 42 42 42 42 43 42 42 43 41 39 35 25 9 9 20 11 15 19 13 27 39 29 37 28 28 33 33 31 20 27 31 32 32 25 16 21 25 28 18 24 13 15 9
39 41 41 42 42 42 42 41 41 41 42 41 39 38 29 27 24 14 13 11 15 14 12 27 37 16 36 36 27 21 31 38 30 24 22 30 25 32 25 29 25 32 2 15 22 18 25
40 41 41 41 42 43 43 43 44 44 44 42 36 36 30 20 23 13 19 14 11 12 19 22 20 23 33 38 19 24 29 33 24 30 27 33 31 22 32 26 30 34 22 22 24 24 24
40 41 40 41 42 44 44 44 43 44 45 45 39 33 33 23 15 6 10 14 12 18 11 21 38 32 34 32 35 24 24 28 25 19 25 24 33 19 23 31 33 32 31 20 23 19 13
38 38 39 41 43 45 46 47 47 46 47 47 38 30 25 22 16 17 11 16 21 22 38 17 17 29 30 33 29 26 23 25 31 36 29 27 29 38 26 31 29 33 35 27 17 12 9
39 39 41 43 45 47 48 49 50 48 47 49 39 16 13 11 14 14 23 23 17 31 30 31 11 26 33 34 31 36 33 33 34 35 33 35 28 36 33 25 39 25 31 41 33 11 7
41 42 43 44 44 45 48 50 51 50 44 45 41 18 22 19 15 15 19 34 35 47 40 20 29 21 33 38 37 36 31 34 31 31 29 41 7 26 22 24 36 37 22 27 23 26 18
38 39 42 45 48 48 49 50 51 52 45 31 22 14 19 10 17 23 22 30 39 49 41 18 30 37 32 31 33 35 27 28 26 28 24 31 31 7 15 22 32 23 23 19 27 12 14
39 39 41 44 46 47 47 47 48 52 48 28 13 10 11 14 20 25 25 36 46 48 37 24 21 36 40 35 31 32 35 29 22 22 28 27 28 18 31 32 29 32 33 28 19 20 18
40 40 41 44 44 44 45 45 44 44 44 47 19 33 15 15 16 22 31 36 39 29 24 25 31 31 36 35 31 32 26 32 13 19 23 29 20 20 16 25 30 37 30 28 26 27 6
38 39 38 39 39 40 40 41 41 35 32 34 16 10 21 24 33 33 30 30 32 26 32 34 39 31 32 36 32 29 33 29 34 21 14 15 26 24 26 18 9 29 31 27 26 20 16
36 35 36 37 35 36 36 37 37 31 25 28 13 14 30 16 17 24 24 28 29 29 31 26 25 33 37 30 32 33 34 36 30 22 20 18 33 36 35 25 27 65 30 41 37 31 26
34 35 35 35 35 33 33 34 35 27 14 11 22 28 35 40 43 33 27 28 34 33 34 37 27 28 27 34 37 37 38 34 34 22 28 32 31 38 40 35 8 18 34 43 40 18 19
34 34 34 33 32 32 31 30 35 35 14 20 27 29 28 26 32 29 25 31 33 26 24 33 29 30 26 22 31 30 36 38 31 32 30 27 21 30 38 36 8 13 52 54 26 35 29
33 33 33 32 31 30 30 29 26 28 25 17 22 29 28 23 26 29 36 32 27 23 24 31 38 31 33 47 37 36 34 38 39 36 40 14 17 28 29 32 41 15 41 60 29 10 12
33 34 33 31 30 30 29 24 26 20 22 22 20 20 22 18 34 32 37 32 29 34 32 39 46 47 47 44 26 26 23 34 39 41 41 37 25 28 16 30 39 23 18 19 9 16 14
28 27 28 28 27 26 24 22 25 20 18 16 19 16 27 23 3 32 33 35 22 24 29 39 42 36 33 20 23 36 32 38 34 44 45 47 42 26 27 34 38 22 30 55 23 22 15
25 26 27 28 28 27 25 23 21 21 20 20 18 17 21 36 49 30 26 27 32 23 20 31 36 32 19 16 25 30 33 38 39 44 35 34 36 36 29 31 16 22 12 48 13 19 13
26 27 28 29 30 28 26 23 19 20 21 22 19 21 21 22 50 47 40 37 37 35 21 24 21 7 21 24 27 29 32 33 37 42 38 25 31 30 28 36 37 40 26 22 32 27 2
26 28 29 29 29 28 26 24 23 23 24 25 22 19 22 25 38 52 56 55 54 50 46 41 29 38 8 12 13 11 15 16 30 27 34 18 16 30 30 26 27 31 16 10 46 37 18
Wind_Direction_500mb
21 22 22 22 19 20 19 20 18 15 13 12 10 8 2 357 349 337 331 328 336 355 6 15 19 7 205 257 250 283 234 208 201 203 230 240 244 255 280 56 86 41 114 117 122 110 100
13 12 12 11 9 10 10 11 11 11 9 8 6 3 360 355 347 333 322 313 298 321 333 345 352 310 267 254 295 291 195 192 190 209 232 240 254 321 315 289 115 191 149 141 137 135 112
2 2 0 360 0 359 0 1 2 2 2 2 2 359 355 353 346 333 318 305 284 284 295 304 317 308 258 262 184 171 181 196 198 214 235 237 259 284 266 32 340 156 82 14 147 151 134
352 351 349 349 350 349 350 351 352 353 352 353 354 354 351 349 343 331 315 301 292 274 269 279 298 298 263 205 218 214 203 208 214 224 241 268 250 268 285 128 260 134 93 280 175 127 142
343 342 342 342 342 341 342 343 344 344 344 344 345 347 347 343 340 321 297 290 293 259 258 257 279 274 264 220 231 213 207 209 212 226 233 256 260 260 258 213 225 49 12 343 282 143 146
335 335 336 335 335 334 335 336 337 337 337 337 338 338 340 338 335 319 279 281 284 261 254 244 238 266 235 250 194 188 204 204 210 219 229 239 245 246 243 252 186 101 298 265 258 226 190
332 331 332 334 333 328 329 330 332 332 330 330 332 331 333 333 330 318 265 285 286 226 217 227 212 235 164 171 172 195 195 209 200 212 221 218 231 238 245 239 129 150 190 237 259 181 176
332 331 330 331 333 332 327 326 327 327 326 324 326 327 326 327 325 308 246 236 345 322 296 244 244 231 252 172 188 186 182 188 196 211 218 221 230 247 258 271 144 164 155 250 175 161 123
333 332 334 335 335 334 333 330 329 328 325 324 323 324 323 323 320 301 254 264 295 313 287 272 222 223 207 192 215 180 192 219 195 218 216 240 221 222 260 274 231 203 203 252 275 169 171
340 339 339 338 336 333 330 328 328 326 324 322 320 320 323 321 322 272 267 267 267 310 280 241 185 211 200 207 229 204 194 211 226 229 233 230 262 279 232 264 266 264 264 200 205 270 250
340 340 339 338 337 336 334 333 330 328 325 321 319 316 320 311 294 253 302 314 286 287 278 127 172 186 187 197 216 196 187 218 248 217 250 242 233 248 221 251 247 264 18 265 282 272 260
341 341 340 339 339 336 333 331 330 329 326 322 317 314 310 305 294 278 277 290 273 238 253 177 132 172 184 211 205 137 183 223 234 262 231 262 268 235 253 235 244 253 242 213 236 247 262
343 343 343 345 345 343 342 339 334 330 327 322 317 307 296 267 220 218 274 239 219 241 213 170 162 188 217 194 232 160 194 205 229 229 236 223 253 221 245 233 223 236 246 249 240 228 269
343 344 344 343 343 342 342 342 340 336 332 322 320 303 292 262 238 269 245 223 238 241 237 288 177 182 204 221 210 178 202 226 218 255 269 225 210 217 206 239 239 209 233 235 240 4 30
343 344 345 344 343 342 342 341 340 336 335 325 328 320 276 305 207 211 222 220 225 245 292 312 208 212 195 220 230 200 205 223 223 207 253 276 236 171 204 212 245 195 231 255 263 97 71
342 342 342 342 341 340 340 340 339 337 339 332 334 309 245 201 215 205 227 241 249 258 298 290 293 248 251 203 219 222 225 214 235 229 207 264 264 172 192 196 238 260 218 233 249 251 189
338 339 341 342 342 340 341 341 340 337 341 337 330 268 153 194 173 212 229 240 248 262 274 283 277 283 270 249 235 228 220 245 221 239 200 253 275 277 252 206 239 221 252 262 277 312 283
336 338 339 340 341 341 342 344 345 340 342 341 307 275 157 191 208 229 241 246 262 283 289 251 263 281 287 290 280 241 245 237 200 214 195 221 262 215 224 199 216 255 214 226 255 238 256
334 336 338 338 340 343 344 347 350 347 348 349 306 293 237 213 252 240 244 235 255 273 284 267 262 250 276 276 290 286 281 248 242 222 236 213 229 262 242 274 201 223 236 249 250 267 65
330 331 334 334 338 340 342 345 349 350 341 340 297 291 207 212 249 280 292 292 294 235 250 278 286 277 259 262 264 275 279 277 261 218 41 312 263 250 262 148 356 297 237 259 256 245 207
330 331 334 332 335 339 340 342 348 346 337 331 256 298 341 296 287 329 313 309 299 296 281 220 265 262 273 272 269 264 254 270 268 169 259 254 253 260 269 165 158 234 286 272 244 257 269
329 329 331 329 331 335 337 341 347 348 340 299 302 343 328 299 301 291 278 266 274 278 271 280 254 252 261 244 260 268 259 254 253 245 216 229 248 258 264 268 244 310 265 282 224 256 286
325 326 327 330 331 333 335 340 347 353 357 326 338 322 304 288 288 289 281 276 281 306 284 303 299 311 287 278 343 332 323 314 296 292 260 246 281 239 249 251 179 36 271 252 203 195 200
323 325 328 329 330 329 332 331 341 350 359 330 324 321 303 292 292 285 295 297 314 306 307 297 303 306 293 308 321 309 305 287 281 279 279 189 265 277 250 272 254 210 224 286 231 244 231
326 328 329 330 330 328 330 332 332 336 341 340 320 321 308 293 305 300 299 317 298 289 277 265 268 274 287 299 293 279 271 272 263 262 260 272 230 253 234 266 274 245 255 286 273 249 236
324 324 323 326 327 327 327 319 320 319 323 338 330 311 303 293 345 346 323 312 306 298 292 280 263 252 259 267 266 258 250 256 256 242 245 247 252 250 251 246 249 293 246 32 15 325 217
321 320 320 322 322 320 317 314 325 321 318 325 312 316 292 285 279 313 312 325 315 308 301 315 348 334 254 255 260 255 257 251 252 253 242 230 236 237 237 240 236 271 106 93 68 262 108
313 315 319 322 322 321 317 308 298 309 317 320 297 311 292 280 287 290 288 296 293 285 273 296 344 309 308 257 259 247 253 253 254 255 259 232 258 232 233 240 238 203 227 229 194 333 58
313 315 317 318 319 317 315 310 297 291 307 311 303 302 304 286 275 290 282 270 260 261 281 284 268 285 32 315 325 339 323 314 301 291 263 245 255 277 228 233 237 164 191 106 226 181 144
Wind_Speed_850mb
38 39 39 39 39 39 39 38 37 35 34 34 33 31 29 25 20 15 11 8 6 7 7 8 9 2 6 14 19 8 25 27 26 29 21 24 31 33 28 4 5 11 17 23 19 13 16
36 37 38 38 39 39 39 38 37 37 36 35 35 34 32 28 22 16 12 7 5 5 6 7 8 8 10 23 2 7 16 24 23 26 24 26 30 24 22 12 9 20 16 23 28 22 14
36 37 38 38 38 39 39 38 37 37 37 37 36 35 34 31 24 18 13 7 6 6 7 8 10 14 16 23 5 4 20 22 24 24 25 23 26 20 32 19 23 22 16 40 28 23 14
36 38 40 40 40 40 39 39 39 38 38 38 37 36 35 32 26 18 11 8 8 9 10 10 12 15 18 14 11 18 20 24 27 24 25 20 20 25 38 2 17 13 19 8 16 24 14
39 41 42 43 42 42 41 41 41 41 40 39 38 37 35 33 27 19 12 11 12 10 13 13 12 10 30 18 15 22 24 28 28 27 25 19 21 32 42 25 23 17 17 34 21 21 19
40 42 44 45 43 42 42 42 42 43 42 41 38 37 35 34 29 20 13 15 18 18 17 20 24 18 30 23 14 21 21 26 29 28 28 30 24 26 29 29 9 9 19 13 31 17 28
41 43 45 46 45 42 41 42 44 44 43 41 39 37 34 33 30 21 13 18 14 10 25 33 14 26 13 10 15 17 20 24 28 32 27 36 26 29 36 32 31 34 25 31 24 46 35
42 44 45 45 44 42 42 43 44 43 42 40 39 37 33 29 28 17 14 12 20 19 32 47 42 37 3 20 18 22 23 27 28 28 34 31 31 36 35 15 48 37 29 26 30 23 20
43 43 43 43 43 42 42 43 44 45 43 42 40 39 34 25 20 8 10 24 21 20 24 40 47 41 31 25 25 33 31 34 25 30 33 35 32 31 38 26 18 37 22 20 1 13 21
42 42 42 43 42 42 42 42 43 42 42 43 41 39 35 25 9 9 20 11 15 19 13 27 39 29 37 28 28 33 33 31 20 27 31 32 32 25 16 21 25 28 18 24 13 15 9
39 41 41 42 42 42 42 41 41 41 42 41 39 38 29 27 24 14 13 11 15 14 12 27 37 16 36 36 27 21 31 38 30 24 22 30 25 32 25 29 25 32 2 15 22 18 25
40 41 41 41 42 43 43 43 44 44 44 42 36 36 30 20 23 13 19 14 11 12 19 22 20 23 33 38 19 24 29 33 24 30 27 33 31 22 32 26 30 34 22 22 24 24 24
40 41 40 41 42 44 44 44 43 44 45 45 39 33 33 23 15 6 10 14 12 18 11 21 38 32 34 32 35 24 24 28 25 19 25 24 33 19 23 31 33 32 31 20 23 19 13
38 38 39 41 43 45 46 47 47 46 47 47 38 30 25 22 16 17 11 16 21 22 38 17 17 29 30 33 29 26 23 25 31 36 29 27 29 38 26 31 29 33 35 27 17 12 9
39 39 41 43 45 47 48 49 50 48 47 49 39 16 13 11 14 14 23 23 17 31 30 31 11 26 33 34 31 36 33 33 34 35 33 35 28 36 33 25 39 25 31 41 33 11 7
41 42 43 44 44 45 48 50 51 50 44 45 41 18 22 19 15 15 19 34 35 47 40 20 29 21 33 38 37 36 31 34 31 31 29 41 7 26 22 24 36 37 22 27 23 26 18
38 39 42 45 48 48 49 50 51 52 45 31 22 14 19 10 17 23 22 30 39 49 41 18 30 37 32 31 33 35 27 28 26 28 24 31 31 7 15 22 32 23 23 19 27 12 14
39 39 41 44 46 47 47 47 48 52 48 28 13 10 11 14 20 25 25 36 46 48 37 24 21 36 40 35 31 32 35 29 22 22 28 27 28 18 31 32 29 32 33 28 19 20 18
40 40 41 44 44 44 45 45 44 44 44 47 19 33 15 15 16 22 31 36 39 29 24 25 31 31 36 35 31 32 26 32 13 19 23 29 20 20 16 25 30 37 30 28 26 27 6
38 39 38 39 39 40 40 41 41 35 32 34 16 10 21 24 33 33 30 30 32 26 32 34 39 31 32 36 32 29 33 29 34 21 14 15 26 24 26 18 9 29 31 27 26 20 16
36 35 36 37 35 36 36 37 37 31 25 28 13 14 30 16 17 24 24 28 29 29 31 26 25 33 37 30 32 33 34 36 30 22 20 18 33 36 35 25 27 65 30 41 37 31 26
34 35 35 35 35 33 33 34 35 27 14 11 22 28 35 40 43 33 27 28 34 33 34 37 27 28 27 34 37 37 38 34 34 22 28 32 31 38 40 35 8 18 34 43 40 18 19
34 34 34 33 32 32 31 30 35 35 14 20 27 29 28 26 32 29 25 31 33 26 24 33 29 30 26 22 31 30 36 38 31 32 30 27 21 30 38 36 8 13 52 54 26 35 29
33 33 33 32 31 30 30 29 26 28 25 17 22 29 28 23 26 29 36 32 27 23 24 31 38 31 33 47 37 36 34 38 39 36 40 14 17 28 29 32 41 15 41 60 29 10 12
33 34 33 31 30 30 29 24 26 20 22 22 20 20 22 18 34 32 37 32 29 34 32 39 46 47 47 44 26 26 23 34 39 41 41 37 25 28 16 30 39 23 18 19 9 16 14
28 27 28 28 27 26 24 22 25 20 18 16 19 16 27 23 3 32 33 35 22 24 29 39 42 36 33 20 23 36 32 38 34 44 45 47 42 26 27 34 38 22 30 55 23 22 15
25 26 27 28 28 27 25 23 21 21 20 20 18 17 21 36 49 30 26 27 32 23 20 31 36 32 19 16 25 30 33 38 39 44 35 34 36 36 29 31 16 22 12 48 13 19 13
26 27 28 29 30 28 26 23 19 20 21 22 19 21 21 22 50 47 40 37 37 35 21 24 21 7 21 24 27 29 32 33 37 42 38 25 31 30 28 36 37 40 26 22 32 27 2
26 28 29 29 29 28 26 24 23 23 24 25 22 19 22 25 38 52 56 55 54 50 46 41 29 38 8 12 13 11 15 16 30 27 34 18 16 30 30 26 27 31 16 10 46 37 18
Wind_Direction_850mb
21 22 22 22 19 20 19 20 18 15 13 12 10 8 2 357 349 337 331 328 336 355 6 15 19 7 205 257 250 283 234 208 201 203 230 240 244 255 280 56 86 41 114 117 122 110 100
13 12 12 11 9 10 10 11 11 11 9 8 6 3 360 355 347 333 322 313 298 321 333 345 352 310 267 254 295 291 195 192 190 209 232 240 254 321 315 289 115 191 149 141 137 135 112
2 2 0 360 0 359 0 1 2 2 2 2 2 359 355 353 346 333 318 305 284 284 295 304 317 308 258 262 184 171 181 196 198 214 235 237 259 284 266 32 340 156 82 14 147 151 134
352 351 349 349 350 349 350 351 352 353 352 353 354 354 351 349 343 331 315 301 292 274 269 279 298 298 263 205 218 214 203 208 214 224 241 268 250 268 285 128 260 134 93 280 175 127 142
343 342 342 342 342 341 342 343 344 344 344 344 345 347 347 343 340 321 297 290 293 259 258 257 279 274 264 220 231 213 207 209 212 226 233 256 260 260 258 213 225 49 12 343 282 143 146
335 335 336 335 335 334 335 336 337 337 337 337 338 338 340 338 335 319 279 281 284 261 254 244 238 266 235 250 194 188 204 204 210 219 229 239 245 246 243 252 186 101 298 265 258 226 190
332 331 332 334 333 328 329 330 332 332 330 330 332 331 333 333 330 318 265 285 286 226 217 227 212 235 164 171 172 195 195 209 200 212 221 218 231 238 245 239 129 150 190 237 259 181 176
332 331 330 331 333 332 327 326 327 327 326 324 326 327 326 327 325 308 246 236 345 322 296 244 244 231 252 172 188 186 182 188 196 211 218 221 230 247 258 271 144 164 155 250 175 161 123
333 332 334 335 335 334 333 330 329 328 325 324 323 324 323 323 320 301 254 264 295 313 287 272 222 223 207 192 215 180 192 219 195 218 216 240 221 222 260 274 231 203 203 252 275 169 171
340 339 339 338 336 333 330 328 328 326 324 322 320 320 323 321 322 272 267 267 267 310 280 241 185 211 200 207 229 204 194 211 226 229 233 230 262 279 232 264 266 264 264 200 205 270 250
340 340 339 338 337 336 334 333 330 328 325 321 319 316 320 311 294 253 302 314 286 287 278 127 172 186 187 197 216 196 187 218 248 217 250 242 233 248 221 251 247 264 18 265 282 272 260
341 341 340 339 339 336 333 331 330 329 326 322 317 314 310 305 294 278 277 290 273 238 253 177 132 172 184 211 205 137 183 223 234 262 231 262 268 235 253 235 244 253 242 213 236 247 262
343 343 343 345 345 343 342 339 334 330 327 322 317 307 296 267 220 218 274 239 219 241 213 170 162 188 217 194 232 160 194 205 229 229 236 223 253 221 245 233 223 236 246 249 240 228 269
343 344 344 343 343 342 342 342 340 336 332 322 320 303 292 262 238 269 245 223 238 241 237 288 177 182 204 221 210 178 202 226 218 255 269 225 210 217 206 239 239 209 233 235 240 4 30
343 344 345 344 343 342 342 341 340 336 335 325 328 320 276 305 207 211 222 220 225 245 292 312 208 212 195 220 230 200 205 223 223 207 253 276 236 171 204 212 245 195 231 255 263 97 71
342 342 342 342 341 340 340 340 339 337 339 332 334 309 245 201 215 205 227 241 249 258 298 290 293 248 251 203 219 222 225 214 235 229 207 264 264 172 192 196 238 260 218 233 249 251 189
338 339 341 342 342 340 341 341 340 337 341 337 330 268 153 194 173 212 229 240 248 262 274 283 277 283 270 249 235 228 220 245 221 239 200 253 275 277 252 206 239 221 252 262 277 312 283
336 338 339 340 341 341 342 344 345 340 342 341 307 275 157 191 208 229 241 246 262 283 289 251 263 281 287 290 280 241 245 237 200 214 195 221 262 215 224 199 216 255 214 226 255 238 256
334 336 338 338 340 343 344 347 350 347 348 349 306 293 237 213 252 240 244 235 255 273 284 267 262 250 276 276 290 286 281 248 242 222 236 213 229 262 242 274 201 223 236 249 250 267 65
330 331 334 334 338 340 342 345 349 350 341 340 297 291 207 212 249 280 292 292 294 235 250 278 286 277 259 262 264 275 279 277 261 218 41 312 263 250 262 148 356 297 237 259 256 245 207
330 331 334 332 335 339 340 342 348 346 337 331 256 298 341 296 287 329 313 309 299 296 281 220 265 262 273 272 269 264 254 270 268 169 259 254 253 260 269 165 158 234 286 272 244 257 269
329 329 331 329 331 335 337 341 347 348 340 299 302 343 328 299 301 291 278 266 274 278 271 280 254 252 261 244 260 268 259 254 253 245 216 229 248 258 264 268 244 310 265 282 224 256 286
325 326 327 330 331 333 335 340 347 353 357 326 338 322 304 288 288 289 281 276 281 306 284 303 299 311 287 278 343 332 323 314 296 292 260 246 281 239 249 251 179 36 271 252 203 195 200
323 325 328 329 330 329 332 331 341 350 359 330 324 321 303 292 292 285 295 297 314 306 307 297 303 306 293 308 321 309 305 287 281 279 279 189 265 277 250 272 254 210 224 286 231 244 231
326 328 329 330 330 328 330 332 332 336 341 340 320 321 308 293 305 300 299 317 298 289 277 265 268 274 287 299 293 279 271 272 263 262 260 272 230 253 234 266 274 245 255 286 273 249 236
324 324 323 326 327 327 327 319 320 319 323 338 330 311 303 293 345 346 323 312 306 298 292 280 263 252 259 267 266 258 250 256 256 242 245 247 252 250 251 246 249 293 246 32 15 325 217
321 320 320 322 322 320 317 314 325 321 318 325 312 316 292 285 279 313 312 325 315 308 301 315 348 334 254 255 260 255 257 251 252 253 242 230 236 237 237 240 236 271 106 93 68 262 108
313 315 319 322 322 321 317 308 298 309 317 320 297 311 292 280 287 290 288 296 293 285 273 296 344 309 308 257 259 247 253 253 254 255 259 232 258 232 233 240 238 203 227 229 194 333 58
313 315 317 318 319 317 315 310 297 291 307 311 303 302 304 286 275 290 282 270 260 261 281 284 268 285 32 315 325 339 323 314 301 291 263 245 255 277 228 233 237 164 191 106 226 181 144